sat.trackr.live / text

‹ back to catalog

JILIN-1 GAOFEN 3G

NORAD 46459 · 2020-065F

PAYLOAD ACTIVE UNKNOWN

§ Identity

Operator
Country
PRC
Launch date
2020-09-15
Launch site
SEAL
Launch vehicle
Mass (kg)
RCS (m²)

External: N2YO · Heavens-Above · Gunter

§ Orbital elements

Epoch: 2026-09-20T01:39:13.828320Z

Period
89.19 min
Inclination
97.2106°
Eccentricity
0.0005774
Mean motion
16.14469501 rev/d
Perigee alt
230.8 km
Apogee alt
238.4 km
Semi-major
6,612.7 km
B*
9.0448e-4
RAAN
324.9314°
Arg perigee
240.3959°
Mean anomaly
119.6753°
Rev number
33,496

§ Raw data

JILIN-1 GAOFEN 3G1 46459U 20065F   26263.06891005  .01118243  85282-3  90448-3 0  99952 46459  97.2106 324.9314 0005774 240.3959 119.6753 16.14469501334960

JSON: /api/v1/satellites/46459 · /tle

For live sub-satellite position, see the globe view (requires WebGL).

§ Visibility from observer

Set your observer location to see the next 7 days of passes ≥ 10°. The values pass through the URL so the page stays shareable.

No JS? Fill the form by hand. The geolocation button needs JavaScript.

§ Radio — SatNOGS DB

ModeDescriptionDownlinkUplink
BPSK Jillin Mysterious Pip 1.616 GHz

1 transmitter · refreshed weekly from db.satnogs.org